| time (UTC) | temp F | wind direction | speed MPH | gust MPH | rain 1hr in | rain 24hr in | rain mn in | humidity % | barometer mb |
| 20260510200042 | 67 | 112 | 0.0 | 2.0 | 0.00 | 0.71 | 0.37 | 54 | 1016.9 |
| 20260510194543 | 66 | 233 | 0.0 | 2.0 | 0.00 | 0.71 | 0.37 | 51 | 1016.9 |
| 20260510193038 | 65 | 359 | 0.0 | 4.0 | 0.00 | 0.71 | 0.37 | 53 | 1016.9 |
| 20260510191542 | 65 | 127 | 0.0 | 3.0 | 0.00 | 0.71 | 0.37 | 60 | 1017.3 |
| 20260510190041 | 63 | 250 | 1.0 | 4.0 | 0.00 | 0.71 | 0.37 | 57 | 1016.8 |
| 20260510184536 | 62 | 345 | 1.0 | 3.0 | 0.00 | 0.71 | 0.37 | 61 | 1016.7 |
| 20260510183043 | 62 | 98 | 0.0 | 4.0 | 0.00 | 0.71 | 0.37 | 65 | 1016.7 |
| 20260510181548 | 61 | 145 | 0.0 | 4.0 | 0.00 | 0.71 | 0.37 | 69 | 1016.7 |
| 20260510180042 | 60 | 0 | 0.0 | 3.0 | 0.00 | 0.71 | 0.37 | 74 | 1016.8 |
| 20260510174543 | 59 | 0 | 0.0 | 5.0 | 0.00 | 0.71 | 0.37 | 72 | 1016.9 |
| 20260510173036 | 57 | 256 | 0.0 | 6.0 | 0.00 | 0.71 | 0.37 | 76 | 1017.0 |
| 20260510171544 | 57 | 9 | 1.0 | 7.0 | 0.00 | 0.71 | 0.37 | 77 | 1017.0 |
| 20260510170042 | 57 | 47 | 0.0 | 3.0 | 0.00 | 0.71 | 0.37 | 80 | 1017.0 |
| 20260510164558 | 56 | 0 | 0.0 | 1.0 | 0.00 | 0.71 | 0.37 | 80 | 1016.8 |
| 20260510163043 | 55 | 0 | 1.0 | 3.0 | 0.00 | 0.71 | 0.37 | 81 | 1016.8 |
| 20260510161537 | 53 | 0 | 0.0 | 1.0 | 0.00 | 0.71 | 0.37 | 84 | 1016.6 |
| 20260510160037 | 54 | 0 | 0.0 | 2.0 | 0.00 | 0.71 | 0.37 | 89 | 1016.3 |
| 20260510154543 | 53 | 0 | 0.0 | 1.0 | 0.00 | 0.71 | 0.37 | 93 | 1016.2 |
| 20260510153047 | 52 | 0 | 0.0 | 1.0 | 0.00 | 0.71 | 0.37 | 94 | 1016.2 |
| 20260510151539 | 52 | 0 | 0.0 | 0.0 | 0.00 | 0.71 | 0.37 | 95 | 1016.1 |
| 20260510150041 | 52 | 0 | 0.0 | 2.0 | 0.00 | 0.71 | 0.37 | 95 | 1015.9 |
| 20260510144547 | 53 | 0 | 0.0 | 3.0 | 0.00 | 0.72 | 0.37 | 95 | 1015.6 |
| 20260510143038 | 53 | 0 | 0.0 | 1.0 | 0.00 | 0.72 | 0.37 | 94 | 1015.4 |
| 20260510141542 | 53 | 0 | 0.0 | 0.0 | 0.00 | 0.72 | 0.37 | 94 | 1015.4 |
| 20260510140041 | 53 | 0 | 0.0 | 0.0 | 0.01 | 0.72 | 0.37 | 94 | 1015.2 |
| 20260510134550 | 53 | 0 | 0.0 | 0.0 | 0.01 | 0.72 | 0.37 | 94 | 1015.3 |
| 20260510133040 | 53 | 0 | 0.0 | 1.0 | 0.01 | 0.72 | 0.37 | 93 | 1014.8 |
| 20260510131537 | 53 | 0 | 0.0 | 3.0 | 0.01 | 0.72 | 0.37 | 94 | 1014.9 |
| 20260510130038 | 53 | 0 | 0.0 | 1.0 | 0.00 | 0.71 | 0.36 | 93 | 1014.7 |
| 20260510124543 | 53 | 0 | 0.0 | 1.0 | 0.00 | 0.74 | 0.36 | 93 | 1014.5 |
| 20260510123041 | 53 | 0 | 0.0 | 1.0 | 0.00 | 0.74 | 0.36 | 93 | 1013.9 |
| 20260510121540 | 53 | 0 | 0.0 | 2.0 | 0.00 | 0.74 | 0.36 | 93 | 1013.6 |
| 20260510120038 | 53 | 0 | 0.0 | 0.0 | 0.00 | 0.74 | 0.36 | 93 | 1013.3 |
| 20260510114537 | 52 | 0 | 0.0 | 0.0 | 0.00 | 0.77 | 0.36 | 93 | 1013.0 |
| 20260510113036 | 51 | 0 | 0.0 | 0.0 | 0.00 | 0.77 | 0.36 | 93 | 1012.6 |
| 20260510111538 | 50 | 0 | 0.0 | 0.0 | 0.00 | 0.77 | 0.36 | 94 | 1012.4 |
| 20260510110039 | 50 | 0 | 0.0 | 0.0 | 0.00 | 0.77 | 0.36 | 94 | 1012.1 |
| 20260510104542 | 50 | 0 | 0.0 | 0.0 | 0.00 | 0.78 | 0.36 | 94 | 1012.1 |
| 20260510103044 | 50 | 0 | 0.0 | 0.0 | 0.00 | 0.78 | 0.36 | 94 | 1011.8 |
| 20260510101539 | 51 | 0 | 0.0 | 0.0 | 0.00 | 0.78 | 0.36 | 94 | 1011.6 |
| 20260510100047 | 51 | 0 | 0.0 | 0.0 | 0.00 | 0.78 | 0.36 | 94 | 1011.3 |
| 20260510094547 | 51 | 0 | 0.0 | 0.0 | 0.00 | 0.78 | 0.36 | 94 | 1011.0 |
| 20260510093038 | 51 | 0 | 0.0 | 0.0 | 0.00 | 0.78 | 0.36 | 94 | 1010.9 |
| 20260510091539 | 51 | 0 | 0.0 | 0.0 | 0.00 | 0.78 | 0.36 | 94 | 1010.8 |
| 20260510090041 | 51 | 0 | 0.0 | 0.0 | 0.00 | 0.78 | 0.36 | 94 | 1010.8 |
| 20260510084549 | 52 | 0 | 0.0 | 0.0 | 0.00 | 0.78 | 0.36 | 94 | 1010.6 |
| 20260510083047 | 52 | 0 | 0.0 | 0.0 | 0.00 | 0.78 | 0.36 | 94 | 1010.4 |
| 20260510081542 | 52 | 0 | 0.0 | 0.0 | 0.00 | 0.78 | 0.36 | 94 | 1010.3 |
| 20260510080042 | 52 | 0 | 0.0 | 0.0 | 0.00 | 0.78 | 0.36 | 94 | 1010.0 |
| 20260510074541 | 52 | 0 | 0.0 | 1.0 | 0.01 | 0.78 | 0.36 | 94 | 1009.9 |
| 20260510073045 | 52 | 0 | 0.0 | 0.0 | 0.01 | 0.78 | 0.36 | 95 | 1009.8 |
| 20260510071544 | 52 | 0 | 0.0 | 0.0 | 0.01 | 0.78 | 0.36 | 95 | 1009.6 |
| 20260510070040 | 52 | 0 | 0.0 | 1.0 | 0.01 | 0.78 | 0.36 | 95 | 1010.0 |
| 20260510064540 | 52 | 0 | 0.0 | 0.0 | 0.00 | 0.77 | 0.35 | 95 | 1010.8 |
| 20260510063037 | 52 | 0 | 0.0 | 0.0 | 0.00 | 0.77 | 0.35 | 95 | 1010.4 |
| 20260510061542 | 52 | 0 | 0.0 | 0.0 | 0.17 | 0.77 | 0.35 | 95 | 1010.3 |
| 20260510060046 | 53 | 0 | 0.0 | 1.0 | 0.23 | 0.77 | 0.35 | 95 | 1010.5 |
| 20260510054538 | 53 | 0 | 0.0 | 1.0 | 0.27 | 0.77 | 0.35 | 95 | 1010.2 |
| 20260510053035 | 54 | 0 | 0.0 | 0.0 | 0.33 | 0.76 | 0.34 | 95 | 1009.8 |
| 20260510051541 | 53 | 0 | 0.0 | 0.0 | 0.17 | 0.58 | 0.17 | 95 | 1011.2 |
| 20260510050043 | 53 | 0 | 0.0 | 0.0 | 0.12 | 0.54 | 0.12 | 95 | 1011.0 |
| 20260510044542 | 53 | 0 | 0.0 | 0.0 | 0.08 | 0.50 | 0.08 | 95 | 1010.9 |
| 20260510043046 | 53 | 0 | 0.0 | 0.0 | 0.01 | 0.43 | 0.01 | 95 | 1010.6 |
| 20260510041552 | 53 | 0 | 0.0 | 0.0 | 0.00 | 0.42 | 0.00 | 95 | 1010.1 |
| 20260510040042 | 53 | 0 | 0.0 | 0.0 | 0.01 | 0.42 | 0.00 | 95 | 1009.8 |
| 20260510034535 | 53 | 0 | 0.0 | 0.0 | 0.07 | 0.43 | 0.42 | 95 | 1009.7 |
| 20260510033043 | 53 | 0 | 0.0 | 0.0 | 0.12 | 0.43 | 0.42 | 95 | 1009.9 |
| 20260510031541 | 54 | 0 | 0.0 | 1.0 | 0.18 | 0.43 | 0.42 | 95 | 1009.9 |
| 20260510030041 | 54 | 0 | 0.0 | 0.0 | 0.31 | 0.42 | 0.41 | 94 | 1010.1 |
| 20260510024551 | 54 | 0 | 0.0 | 2.0 | 0.26 | 0.38 | 0.34 | 93 | 1010.8 |
| 20260510023037 | 54 | 0 | 0.0 | 2.0 | 0.22 | 0.34 | 0.30 | 93 | 1011.2 |
| 20260510021542 | 54 | 278 | 0.0 | 1.0 | 0.15 | 0.27 | 0.23 | 90 | 1011.0 |
| 20260510020048 | 56 | 23 | 0.0 | 7.0 | 0.02 | 0.14 | 0.10 | 85 | 1010.8 |
| 20260510014542 | 59 | 336 | 1.0 | 9.0 | 0.00 | 0.14 | 0.08 | 75 | 1010.1 |
| 20260510013041 | 59 | 0 | 0.0 | 2.0 | 0.00 | 0.14 | 0.08 | 75 | 1008.3 |
| 20260510011540 | 59 | 0 | 0.0 | 1.0 | 0.00 | 0.14 | 0.08 | 75 | 1008.0 |
| 20260510010056 | 59 | 0 | 0.0 | 2.0 | 0.00 | 0.14 | 0.08 | 74 | 1007.9 |
| 20260510004536 | 60 | 0 | 0.0 | 3.0 | 0.00 | 0.14 | 0.08 | 73 | 1007.9 |
| 20260510003042 | 60 | 0 | 0.0 | 2.0 | 0.00 | 0.14 | 0.08 | 73 | 1007.9 |
| 20260510001539 | 61 | 0 | 0.0 | 1.0 | 0.00 | 0.14 | 0.08 | 71 | 1007.7 |
| 20260510000043 | 62 | 0 | 0.0 | 2.0 | 0.00 | 0.14 | 0.08 | 70 | 1007.5 |
| 20260509234556 | 62 | 91 | 0.0 | 2.0 | 0.00 | 0.14 | 0.08 | 71 | 1007.4 |
| 20260509233036 | 63 | 155 | 0.0 | 3.0 | 0.00 | 0.14 | 0.08 | 70 | 1007.3 |
| 20260509231536 | 63 | 99 | 0.0 | 1.0 | 0.00 | 0.14 | 0.08 | 68 | 1007.2 |
| 20260509230042 | 64 | 95 | 1.0 | 5.0 | 0.00 | 0.14 | 0.08 | 67 | 1007.2 |
| 20260509224540 | 65 | 113 | 1.0 | 5.0 | 0.00 | 0.14 | 0.08 | 66 | 1007.0 |
| 20260509223041 | 65 | 116 | 0.0 | 5.0 | 0.00 | 0.14 | 0.08 | 66 | 1006.7 |
| 20260509221601 | 65 | 238 | 0.0 | 3.0 | 0.00 | 0.14 | 0.08 | 68 | 1006.9 |
| 20260509220041 | 66 | 137 | 0.0 | 5.0 | 0.00 | 0.14 | 0.08 | 66 | 1007.2 |
| 20260509214540 | 67 | 295 | 1.0 | 5.0 | 0.00 | 0.14 | 0.08 | 63 | 1007.4 |
| 20260509213043 | 68 | 89 | 0.0 | 4.0 | 0.00 | 0.14 | 0.08 | 66 | 1007.3 |
| 20260509211542 | 67 | 135 | 0.0 | 4.0 | 0.00 | 0.14 | 0.08 | 68 | 1007.5 |
| 20260509210040 | 66 | 0 | 1.0 | 3.0 | 0.00 | 0.14 | 0.08 | 66 | 1007.6 |
| 20260509204538 | 66 | 77 | 1.0 | 5.0 | 0.00 | 0.14 | 0.08 | 69 | 1007.8 |
| 20260509203041 | 66 | 163 | 0.0 | 4.0 | 0.00 | 0.14 | 0.08 | 69 | 1008.0 |
| 20260509201535 | 65 | 0 | 0.0 | 10.0 | 0.00 | 0.14 | 0.08 | 71 | 1008.1 |